Regional Weather Roundup
Issued by NWS Kansas City/Pleasant Hill, MO

Home | Current Version | Previous Version | Graphics & Text | Print | Product List | Glossary Off
Versions: 1 2 3 4 5 6 7 8 9 10 11 12 13 14 15 16 17 18 19 20 21 22 23 24 25 26 27

000
ASUS43 KEAX 212110
RWREAX

WEATHER ROUNDUP FOR EASTERN KANSAS AND NORTHWEST MISSOURI
NATIONAL WEATHER SERVICE KANSAS CITY/PLEASANT HILL MO
300 PM CST SUN JAN 21 2018

KSZ040-057-103>105-MOZ028-029-037-043-212200-
...KANSAS CITY METROPOLITAN AREA...

CITY           SKY/WX    TMP DP  RH WIND       PRES   REMARKS
K.C. INTL      PTSUNNY   62  50  64 SW18G28   29.68F
K.C. DOWNTOWN  PTSUNNY   64  50  60 SW7       29.68F
LEES SUMMIT    CLOUDY    64  53  67 SW9       29.69F
OLATHE - IXD   CLOUDY    65  51  60 S18       29.69F
OLATHE - OJC   MOSUNNY   63  51  65 S20G25    29.68F
LAWRENCE       CLOUDY    62  51  67 S15       29.68S

$$

MOZ001>008-011>017-020>025-030>033-038>040-044>046-053-054-212200-
...NORTHERN AND CENTRAL MISSOURI...

CITY           SKY/WX    TMP DP  RH WIND       PRES   REMARKS
ST. JOSEPH     CLOUDY    58  50  75 S5        29.68F
MOSBY          CLOUDY    59  50  72 SE6       29.70S
WARRENSBURG    CLOUDY    64  50  59 S14       29.70F
WHITEMAN AFB   CLOUDY    67  51  56 SW17      29.67S
CLINTON        CLOUDY    70  50  49 SW15      29.72S
SEDALIA        CLOUDY    70  52  52 SW20G29   29.73S
WARSAW         NOT AVBL
CHILLICOTHE      N/A     56  50  80 SE5       29.73S
KIRKSVILLE     CLOUDY    56  53  90 SE6       29.75F

$$

MOZ041-047>049-056>058-063>065-088>090-097-212200-
...EASTERN AND SOUTHERN MISSOURI...

CITY           SKY/WX    TMP DP  RH WIND       PRES   REMARKS
ST. LOUIS INTL PTSUNNY   66  54  65 S14G23    29.82F
SPIRIT OF STL  CLOUDY    68  54  60 S7G25     29.81S
COLUMBIA       CLOUDY    70  52  52 SW16G22   29.74F
JEFFERSON CITY MOSUNNY   70  52  52 S12       29.74F
ROLLA          PTSUNNY   68  53  58 S13G28    29.79F
OSAGE BEACH    MOSUNNY   71  53  52 S13G23    29.75F
SPRINGFIELD    PTSUNNY   69  53  56 S17G28    29.75F
BRANSON        PTSUNNY   66  55  68 S9        29.81F
JOPLIN         MOSUNNY   70  53  54 S24G32    29.71F
WEST PLAINS    CLOUDY    63  55  75 S16G28    29.86F

$$

IAZ060-094-KSZ022-034>040-054-083-096-NEZ052-066-093-212200-
...KANSAS...SOUTHEAST NEBRASKA AND IOWA...

CITY           SKY/WX    TMP DP  RH WIND       PRES   REMARKS
TOPEKA         CLOUDY    61  50  67 S7        29.65F
MANHATTAN      PTSUNNY   62  46  55 S16       29.58F
EMPORIA        CLOUDY    60  49  66 S14       29.62F
CHANUTE          N/A     65  52  62 S14       29.67F
WICHITA        PTSUNNY   62  46  55 SW20      29.60S
OMAHA          CLOUDY    40  39  97 N9        29.72S FOG     WCI  34
LINCOLN        FOG       39  38  96 N15       29.69F VSB 1/2 WCI  31
FALLS CITY     CLOUDY    58  46  64 S10       29.65F
LAMONI         CLOUDY    53  49  86 SE9       29.71S
DES MOINES     FOG       41  40  96 E7        29.76R VSB 1/4

$$





USA.gov is the U.S. government's official web portal to all federal, state and local government web resources and services.